Погода в Маразе

Погода в Маразе : погода сейчас, прогноз погоды и архив. Всё, что Вы хотите узнать о погоде в Маразе!

Поиск расширенной информации на нашем сайте:

Другие новости

Новости СМИ2

Главная страница сайта

Новости сайта

02.10.2013

Напоминаем, что на нашем новом сайте вы можете получить высокодетализированные прогнозы погоды по пунктам России, СНГ и мира (включающие важные для авиации метеовеличины, такие как направление и скорость ветра, видимость, явления погоды, количество и форма облачности, нижняя и верхняя граница облачности), а также ознакомиться с разнообразными материалами по авиационной метеорологии и подборкой полезных ссылок на эту тему.

Сайт Метеоцентр.Азия посвящён разработке технологий оптимизации авиаметеорологического обслуживания, включая проектирование и перспективное создание нескольких автоматизированных авиаметеорологических систем:
- система выпуска высокодетальных прогностических карт явлений погоды для нижнего воздушного пространства по России и ближнему зарубежью;
- система верификации прогнозов TAF (выпускаемых синоптиками официальных АМСГ РФ и ближнего зарубежья) и AUTOTAF (выпускаемых сайтом Метеоцентр.Азия) - выявление ошибок, онлайн-сопоставление с фактической погодой METAR, автоматическое внесение коррективов в прогнозы при резком отклонении фактической погоды от прогноза, подсчёт оправдываемости прогнозов по элементам и в целом;
- система обработки, анализа и отображения авиаметеорологической информации для применения провайдерами метеорологической информации.


Погода в Маразе - сегодня

Время (UTC), дата Ветер
(°,м/с) 
Видим.   Явления Облачность Т
(°С)
Тd
(°С)
f(%) Тe
(°С)
Pmin
(гПа)
dP
(гПа)
Po
(мм)
O2
(г/м3)
Тmin Tmax R s Состояние
почвы
00 24.05.17 270 (З) 10 км  {ливн. осадки}  ясно 
+12.7 +10.7 88 +18  1012.3  -0.2  695  265           
03 24.05.17 270 (З) 20000 м    10/0 верхняя 
[Ci sp]
+13.1 +11.2 88 +18  1011.8  -0.3  694  265      0.5     
06 24.05.17 240 (ЮЗ) 20000 м  слаб. дождь  10/10 600 м 
[Ns]
+14.1 +12.8 92 +21  1014.6  2.8  696  264           
09 24.05.17 210 (ЮЗ) 20000 м  {дождь}  6/6 600 м 
[Cu med, cong]
+20.2 +15.1 72 +31  1010.4  -1.5  695  258           
12 24.05.17 290 (З) 20000 м  {дождь}  10/10 600 м 
[Cu med, cong]
+17.7 +14 79 +27  1011.6  -0.1  695  260           
15 24.05.17 260 (З) 20000 м    6/3 600 м верхняя 
[Cu med, cong|Ci sp]
+18.8 +15.1 79 +31  1010.3  -0.9  695  259         
18 24.05.17 320 (СЗ) 10 км    ясно 
+14.7 +12.1 84 +22  1014  2.2  696  264    +20.7       
21 24.05.17 110 (В) 10 км  слаб. ливневой дождь  10/10 600 м кучево-дожд. 
[Cb cap]
+13.8 +12.1 89 +20  1015.2  0.8  697  265           
00 25.05.17 тихо ()   10 км  {ливн. осадки}  8/8 600 м 
[Frnb]
+13.1 +11.4 89 +18  1014.5  -0.8  696  265           
03 25.05.17 тихо ()   0500 м  туман  ?/?  
+13.5 +13.5 100 +22  1015.9  1.4  697  265      0.9     
06 25.05.17 160 (Ю) 20000 м  {туман}  10/10 600 м 
[Cu med, cong]
+16 +13.1 83 +23  1015.9  0.7  698  263           
09 25.05.17 200 (Ю) 20000 м    9/9 600 м 
[Cu med, cong]
+18.1 +12.5 70 +25  1015.9  0.5  698  261           
12 25.05.17 130 (ЮВ) 20000 м    8/8 600 м 
[Cu med, cong]
+19.7 +12 61 +27  1014.4  -0.9  698  260           
15 25.05.17 100 (В) 20000 м    8/4 600 м верхняя 
[Cu med, cong|Ci sp]
+15.5 +11.8 79 +21  1015.5  -0.2  697  264           
18 25.05.17 тихо ()   10 км    10/10 600 м 
[Sc]
+12.5 +9.9 84 +15  1017.9  1.3  698  267    +20.6       
21 25.05.17 тихо ()   10 км    10/10 600 м 
[Sc]
+12.3 +9.9 85 +15  1018.7  0.6  699  268           
00 26.05.17 тихо ()   10 км    10/10 600 м 
[Sc]
+12.7 +10.4 86 +16  1018.7  0.2  699  267           
03 26.05.17 240 (ЮЗ) 20000 м    10/10 600 м 
[Frnb]
+13 +11.7 92 +18  1018.1  -0.4  699  266           
06 26.05.17 180 (Ю) 20000 м    10/10 600 м 
[Frnb]
+13.9 +11.9 88 +19  1017.7  -0.1  699  265           
09 26.05.17 260 (З) 20000 м    10/10 600 м 
[Frnb]
+16.2 +12.2 77 +23  1016.8  -0.2  698  263           
12 26.05.17 270 (З) 20000 м    10/10 600 м 
[Cu med, cong]
+17.7 +12.5 72 +25  1015.8  -0.4  698  262           
15 26.05.17 180 (Ю) 20000 м    6/6 600 м 
[Cu med, cong]
+17.1 +10.7 66 +23  1015.1  -0.9  697  262           
18 26.05.17 090 (В) 10 км    10/10 600 м 
[Sc]
+13.4 +10.7 84 +19  1015.5  -0.7  697  266    +18.3       
21 26.05.17 тихо ()   10 км    4/0 верхняя 
[Ci sp]
+11.9 +9.3 84 +14  1016.6  0.5  697  267           
00 27.05.17 тихо ()   10 км    10/10 600 м 
[Sc]
+11.4 +9.2 86 +13  1015.7  -0.9  697  268           
Время (UTC), дата Ветер
(°,м/с) 
Видим.   Явления Облачность Т
(°С)
Тd
(°С)
f(%) Тe
(°С)
Pmin
(гПа)
dP
(гПа)
Po
(мм)
O2
(г/м3)
Тmin Tmax R s Состояние
почвы

Для получения пояснительной информации подведите курсор к названию столбца.

ПОГОДА в Маразе - архив

Всё, что Вы хотите узнать о погоде в Маразе - удобно и подробно!

Выберите нужную дату (начиная с 1 января 2015* года) и нажмите кнопку "Найти".
Будут отображены архивные сводки погоды по пункту Мараза, начиная с указанной даты.


Отображать данные в формате CSV (для использования в таблицах Excel)


Внимание! Наш архив погоды предназначен исключительно для личного некоммерческого использования в познавательных целях. Если Вам необходимы официальные справки о состоянии погоды (для производственных, юридических, коммерческих и т.п. целей), обращайтесь в органы Росгидромета.

*Примечание: данная дата относится к архиву по метеостанциям СССР (Россия, СНГ, Балтия).
Архив по метеостанциям Зарубежной Европы и Азии (кроме Китая) хранится 10 дней, по другим регионам земного шара (Китай, Африка, Америка, Австралия, Океания) - 1 день.

Мараза - район местоположения метеостанции


Название, широта, долгота, высота метеостанции:
Мараза 40.5°ш. 48.9°д. 755 м над ур. моря [Азербайджан]

Дополнительная информация

В oтличие oт бoльшинства пoгoдных сайтoв мы публикуем пoдрoбную метеoинфoрмацию в детальнoм прoфессиoнальнoм фoрмате.

Характеристики температуры и влажнoсти вoздуха измеряются на высoте 2 м в тени вдали oт зданий и деревьев.
Скoрoсть ветра измеряется на высoте 10 м (на урoвне рoста челoвека скoрoсть ветра ниже в 1.5-2 раза). Если метеoстанция нахoдится в гoрoде или в лесу, тo скoрoсть ветра занижена на 2-4 м/с пo сравнению с oткрытым местoм. Скoрoсть ветра над акватoриями крупных рек и oзёр, а также на вершинах хoлмoв на 2-5 м/с выше, чем в oбычных услoвиях.
Атмoсфернoе давление в разных тoчках местнoсти мoжет значительнo oтличаться oт давления на метеoстанции, в зависимoсти oт услoвий рельефа (при пoдъёме на 10 м давление пoнижается примернo на 1 мм рт.ст.).